Location: Chuathbaluk
(61.5726°N, 159.2454°W)
Time: 13:35:23
(UTC+00:00)

NUDT-PHONESAT - Pass Details

Date: 17 January 2021
Orbit: 480 x 498 km, 97.4° (Epoch: 01 March)

Event Time Altitude Azimuth Distance (km) Brightness Sun altitude
Rises 03:31:20 0° 148° (SSE) 2,568 ? -9.6°
Reaches altitude 10° 03:33:25 10° 144° (SE) 1,693 ? -9.8°
Maximum altitude 03:36:58 54° 67° (ENE) 615 ? -10.2°
Drops below altitude 10° 03:40:35 10° 350° (N) 1,716 ? -10.6°
Sets 03:42:42 0° 346° (NNW) 2,607 ? -10.8°
